Home   Weather   Setúbal   Past weeks

Flag for Portugal Past Weather in Setúbal, Portugal — Yesterday and Last 2 Weeks

Now
61 °F

Clear.


Feels Like: 61 °F
Forecast: 64 / 85 °F
Wind: 13 mph from Northwest

Location: Lisbon Portela Airport

Current Time: Sep 26, 2016 at 1:19:05 AM

Latest Report: Sep 26, 2016 at 12:30 AM


Visibility: 10 mi

Pressure: 30.15 "Hg

Humidity: 72%

Dew Point: 52 °F

Location of SetúbalLocation

Past Weather in Setúbal — Graph

°F

Setúbal Temperature Yesterday

Maximum temperature yesterday: 77 °F (at 2:30 PM)
Minimum temperature yesterday: 63 °F (at 6:00 AM)
Average temperature yesterday: 68 °F

High & Low Weather Summary for the Past Weeks

 TemperatureHumidityPressure
High86 °F (Sep 17, 3:30 PM)100% (Sep 13, 4:30 AM)30.24 "Hg (Sep 13, 4:30 AM)
Low57 °F (Sep 15, 7:00 AM)20% (Sep 19, 4:00 PM)29.86 "Hg (Sep 13, 3:00 AM)
Average68 °F69%30.08 "Hg
* Reported Sep 11 12:00 AM — Sep 26 12:00 AM, Setúbal, Weather by CustomWeather, © 2016

Note: Actual official high and low records may vary slightly from our data, if they occured in-between our weather recording intervals... More about our weather records

Advertising

Setúbal Weather History for the Previous 24 Hours

Scroll right to see more
 ConditionsComfort  
Time TempWeatherWind HumidityBarometerVisibility
12:00 AM
Mon, Sep 26
61 °FClear.18 mph72%30.15 "Hg10 mi
11:30 PM
Sun, Sep 25
63 °FClear.10 mph68%30.15 "Hg10 mi
11:00 PM63 °FClear.12 mph73%30.15 "Hg10 mi
10:30 PM63 °FPassing clouds.12 mph68%30.15 "HgN/A
10:00 PM63 °FClear.15 mph68%30.15 "Hg10 mi
9:30 PM63 °FPassing clouds.14 mph68%30.15 "HgN/A
9:00 PM64 °FClear.14 mph64%30.15 "Hg10 mi
8:30 PM64 °FPassing clouds.14 mph68%30.15 "HgN/A
8:00 PM64 °FClear.15 mph64%30.15 "Hg10 mi
7:30 PM66 °FPassing clouds.15 mph56%30.12 "HgN/A
7:00 PM66 °FSunny.16 mph60%30.12 "Hg10 mi
6:30 PM68 °FSunny.16 mph60%30.15 "Hg10 mi
6:00 PM70 °FPassing clouds.14 mph57%30.15 "HgN/A
5:30 PM72 °FPassing clouds.15 mph57%30.12 "HgN/A
5:00 PM73 °FSunny.14 mph53%30.12 "Hg10 mi
4:30 PM75 °FPassing clouds.17 mph44%30.12 "HgN/A
4:00 PM77 °FPassing clouds.14 mph34%30.12 "HgN/A
3:30 PM77 °FPassing clouds.13 mph36%30.12 "HgN/A
3:00 PM77 °FPassing clouds.12 mph36%30.12 "HgN/A
2:30 PM77 °FPassing clouds.14 mph42%30.12 "HgN/A
2:00 PM75 °FPassing clouds.14 mph44%30.15 "HgN/A
1:30 PM75 °FPassing clouds.10 mph44%30.15 "HgN/A
1:00 PM75 °FPassing clouds.10 mph44%30.15 "HgN/A
12:30 PM73 °FPassing clouds.9 mph47%30.15 "HgN/A
12:00 PM72 °FPassing clouds.8 mph61%30.15 "HgN/A
11:30 AM72 °FPassing clouds.10 mph57%30.18 "HgN/A
11:00 AM70 °FPassing clouds.10 mph60%30.18 "HgN/A
10:30 AM70 °FPassing clouds.10 mph60%30.18 "HgN/A
10:00 AM68 °FPassing clouds.10 mph64%30.18 "HgN/A
9:30 AM66 °FPassing clouds.14 mph68%30.18 "HgN/A
9:00 AM63 °FPassing clouds.14 mph77%30.18 "HgN/A
8:30 AM63 °FPassing clouds.10 mph77%30.15 "HgN/A
8:00 AM63 °FPassing clouds.16 mph73%30.15 "HgN/A
7:30 AM63 °FPassing clouds.14 mph77%30.15 "HgN/A
7:00 AM63 °FClear.12 mph77%30.15 "Hg10 mi
6:30 AM63 °FPassing clouds.6 mph83%30.12 "HgN/A
6:00 AM63 °FPassing clouds.8 mph88%30.12 "HgN/A
5:30 AM64 °FPassing clouds.6 mph88%30.12 "HgN/A
5:00 AM64 °FPassing clouds.5 mph94%30.12 "HgN/A
4:30 AM66 °FPassing clouds.6 mph94%30.12 "HgN/A
4:00 AM66 °FPassing clouds.9 mph94%30.12 "HgN/A
3:30 AM68 °FPartly cloudy.1 mph94%30.12 "HgN/A
3:00 AM68 °FPartly cloudy.2 mph94%30.12 "HgN/A
2:30 AM68 °FPartly cloudy.2 mph88%30.12 "HgN/A
2:00 AM68 °FPartly cloudy.2 mph88%30.12 "HgN/A
1:30 AM68 °FPassing clouds.3 mph88%30.12 "HgN/A
1:00 AM68 °FPassing clouds.6 mph88%30.12 "HgN/A
Weather by CustomWeather, © 2016

See weather overviewHow to use our weather pages